• In Germany
  • List of Countries
  • For 7 days
  • Water Temperature
  • Satellite Maps
  • Weather Map
  • Weather Widgets
  • user-avatar
    Login

    Hourly Weather Villavicencio

    Today, 17 August, Thursday

    Time Temperature Precipitation Wind Pressure Humidity
    00:00 +24°C° 0.3 mm 1 mps 718 mmHg 90%
    01:00 +24°C° 0 mm 1 mps 718 mmHg 89%
    02:00 +24°C° 0.2 mm 1 mps 718 mmHg 88%
    03:00 +24°C° 0.2 mm 1 mps 717 mmHg 87%
    04:00 +24°C° 0.2 mm 1 mps 717 mmHg 86%
    05:00 +25°C° 0.1 mm 1 mps 718 mmHg 84%
    06:00 +23°C° 0.1 mm 0 mps 718 mmHg 82%
    07:00 +24°C° 0 mm 0 mps 718 mmHg 78%
    08:00 +27°C° 0.3 mm 1 mps 718 mmHg 74%
    09:00 +28°C° 0.3 mm 1 mps 718 mmHg 71%
    10:00 +30°C° 0.3 mm 1 mps 718 mmHg 68%
    11:00 +31°C° 0.2 mm 1 mps 718 mmHg 65%
    12:00 +32°C° 0.2 mm 2 mps 717 mmHg 62%
    13:00 +34°C° 0.2 mm 2 mps 716 mmHg 60%
    14:00 +32°C° 0.3 mm 2 mps 716 mmHg 63%
    15:00 +32°C° 0.3 mm 2 mps 715 mmHg 66%
    16:00 +31°C° 0.3 mm 2 mps 715 mmHg 69%
    17:00 +30°C° 1.3 mm 1 mps 715 mmHg 75%
    18:00 +28°C° 1.3 mm 1 mps 715 mmHg 82%
    19:00 +24°C° 1.3 mm 0 mps 716 mmHg 89%
    20:00 +26°C° 0.3 mm 1 mps 716 mmHg 88%
    21:00 +26°C° 0.3 mm 1 mps 717 mmHg 87%
    22:00 +26°C° 0.3 mm 1 mps 717 mmHg 86%
    23:00 +25°C° 0.1 mm 1 mps 717 mmHg 85%

    Tomorrow, 18 August, Friday

    Time Temperature Precipitation Wind Pressure Humidity
    00:00 +25°C° 0.1 mm 1 mps 717 mmHg 84%
    01:00 +25°C° 0.1 mm 1 mps 717 mmHg 82%
    02:00 +25°C° 0.3 mm 1 mps 717 mmHg 82%
    03:00 +24°C° 0.3 mm 1 mps 716 mmHg 82%
    04:00 +24°C° 0.3 mm 1 mps 716 mmHg 82%
    05:00 +25°C° 0.3 mm 1 mps 717 mmHg 80%
    06:00 +25°C° 0.3 mm 1 mps 717 mmHg 79%
    07:00 +24°C° 0.3 mm 0 mps 718 mmHg 77%
    08:00 +27°C° 0.1 mm 1 mps 718 mmHg 73%
    09:00 +29°C° 0.1 mm 1 mps 718 mmHg 68%
    10:00 +30°C° 0.1 mm 1 mps 718 mmHg 64%
    11:00 +31°C° 0.1 mm 1 mps 717 mmHg 61%
    12:00 +32°C° 0.1 mm 2 mps 717 mmHg 58%
    13:00 +34°C° 0.1 mm 2 mps 716 mmHg 56%
    14:00 +32°C° 0.4 mm 2 mps 715 mmHg 61%
    15:00 +32°C° 0.4 mm 2 mps 715 mmHg 66%
    16:00 +31°C° 0.4 mm 2 mps 714 mmHg 71%
    17:00 +29°C° 0.7 mm 1 mps 714 mmHg 76%
    18:00 +28°C° 0.7 mm 1 mps 715 mmHg 81%
    19:00 +26°C° 0.7 mm 1 mps 715 mmHg 87%
    20:00 +26°C° 0.5 mm 1 mps 716 mmHg 86%
    21:00 +26°C° 0.5 mm 1 mps 716 mmHg 85%
    22:00 +26°C° 0.5 mm 1 mps 717 mmHg 84%
    23:00 +25°C° 0.3 mm 1 mps 717 mmHg 84%

    Day after tomorrow, 19 August, Saturday

    Time Temperature Precipitation Wind Pressure Humidity
    00:00 +25°C° 0.3 mm 1 mps 717 mmHg 84%
    01:00 +25°C° 0.3 mm 1 mps 716 mmHg 83%
    02:00 +25°C° 0.1 mm 1 mps 716 mmHg 83%
    03:00 +24°C° 0.1 mm 1 mps 716 mmHg 82%
    04:00 +24°C° 0.1 mm 1 mps 716 mmHg 82%
    05:00 +25°C° 0.4 mm 1 mps 716 mmHg 81%
    06:00 +25°C° 0.4 mm 1 mps 717 mmHg 80%
    07:00 +26°C° 0.4 mm 1 mps 717 mmHg 79%
    08:00 +27°C° 0.5 mm 1 mps 718 mmHg 76%
    09:00 +28°C° 0.5 mm 1 mps 718 mmHg 72%
    10:00 +29°C° 0.5 mm 1 mps 718 mmHg 69%
    11:00 +30°C° 0.2 mm 1 mps 717 mmHg 66%
    12:00 +31°C° 0.2 mm 1 mps 716 mmHg 62%
    13:00 +32°C° 0.2 mm 2 mps 716 mmHg 59%
    14:00 +32°C° 0.1 mm 2 mps 715 mmHg 61%
    15:00 +31°C° 0.1 mm 1 mps 715 mmHg 64%
    16:00 +31°C° 0.1 mm 1 mps 714 mmHg 66%
    17:00 +29°C° 0.3 mm 1 mps 715 mmHg 71%
    18:00 +28°C° 0.3 mm 1 mps 715 mmHg 76%
    19:00 +26°C° 0.3 mm 1 mps 716 mmHg 81%
    20:00 +26°C° 0.9 mm 1 mps 716 mmHg 82%
    21:00 +25°C° 0.9 mm 1 mps 717 mmHg 83%
    22:00 +25°C° 0.9 mm 1 mps 717 mmHg 84%
    23:00 +25°C° 0.7 mm 1 mps 717 mmHg 84%

    20 August, Sunday

    Time Temperature Precipitation Wind Pressure Humidity
    00:00 +24°C° 0.7 mm 1 mps 717 mmHg 83%
    01:00 +24°C° 0.7 mm 1 mps 716 mmHg 83%
    02:00 +24°C° 0.2 mm 1 mps 716 mmHg 82%
    03:00 +24°C° 0.2 mm 1 mps 716 mmHg 82%
    04:00 +24°C° 0.2 mm 1 mps 716 mmHg 82%
    05:00 +24°C° 0.1 mm 1 mps 717 mmHg 81%
    06:00 +23°C° 0.1 mm 0 mps 717 mmHg 79%
    07:00 +23°C° 0.1 mm 0 mps 718 mmHg 78%
    08:00 +27°C° 0 mm 1 mps 718 mmHg 72%
    09:00 +29°C° 0 mm 1 mps 718 mmHg 65%
    10:00 +31°C° 0 mm 1 mps 719 mmHg 59%
    11:00 +31°C° 0 mm 1 mps 718 mmHg 55%
    12:00 +32°C° 0 mm 2 mps 717 mmHg 52%
    13:00 +34°C° 0 mm 2 mps 717 mmHg 48%
    14:00 +34°C° 0.1 mm 2 mps 716 mmHg 50%
    15:00 +34°C° 0.1 mm 2 mps 716 mmHg 51%
    16:00 +32°C° 0.1 mm 2 mps 715 mmHg 53%
    17:00 +30°C° 0 mm 1 mps 716 mmHg 59%
    18:00 +28°C° 0 mm 1 mps 716 mmHg 66%
    19:00 +26°C° 0 mm 1 mps 717 mmHg 73%
    20:00 +25°C° 0.2 mm 1 mps 717 mmHg 71%
    21:00 +25°C° 0.2 mm 1 mps 718 mmHg 69%
    22:00 +25°C° 0.2 mm 1 mps 719 mmHg 67%
    23:00 +25°C° 0.1 mm 1 mps 718 mmHg 67%

    21 August, Monday

    Time Temperature Precipitation Wind Pressure Humidity
    00:00 +24°C° 0.1 mm 1 mps 718 mmHg 67%
    01:00 +22°C° 0.1 mm 0 mps 718 mmHg 67%
    02:00 +24°C° 0 mm 1 mps 718 mmHg 68%
    03:00 +24°C° 0 mm 1 mps 717 mmHg 68%
    04:00 +23°C° 0 mm 1 mps 717 mmHg 69%
    05:00 +24°C° 0 mm 1 mps 718 mmHg 67%
    06:00 +24°C° 0 mm 1 mps 718 mmHg 66%
    07:00 +25°C° 0 mm 1 mps 719 mmHg 65%
    08:00 +27°C° 0 mm 1 mps 719 mmHg 60%
    09:00 +29°C° 0 mm 1 mps 720 mmHg 55%
    10:00 +31°C° 0 mm 2 mps 720 mmHg 50%
    11:00 +32°C° 0.1 mm 2 mps 720 mmHg 49%
    12:00 +33°C° 0.1 mm 3 mps 719 mmHg 49%
    13:00 +33°C° 0.1 mm 3 mps 719 mmHg 49%
    14:00 +30°C° 1 mm 2 mps 718 mmHg 60%
    15:00 +28°C° 1 mm 2 mps 718 mmHg 71%
    16:00 +26°C° 1 mm 1 mps 717 mmHg 82%
    17:00 +26°C° 0.4 mm 1 mps 718 mmHg 83%
    18:00 +25°C° 0.4 mm 1 mps 718 mmHg 84%
    19:00 +25°C° 0.4 mm 1 mps 718 mmHg 85%
    20:00 +24°C° 0 mm 1 mps 719 mmHg 83%
    21:00 +24°C° 0 mm 1 mps 719 mmHg 82%
    22:00 +23°C° 0 mm 1 mps 719 mmHg 81%
    23:00 +23°C° 0 mm 1 mps 719 mmHg 79%

    22 August, Tuesday

    Time Temperature Precipitation Wind Pressure Humidity
    00:00 +23°C° 0 mm 1 mps 719 mmHg 78%
    01:00 +23°C° 0 mm 1 mps 719 mmHg 76%
    02:00 +23°C° 0 mm 1 mps 719 mmHg 73%
    03:00 +23°C° 0 mm 1 mps 718 mmHg 69%
    04:00 +24°C° 0 mm 1 mps 718 mmHg 66%
    05:00 +24°C° 0 mm 1 mps 719 mmHg 65%
    06:00 +24°C° 0 mm 1 mps 719 mmHg 65%
    07:00 +25°C° 0 mm 1 mps 720 mmHg 65%
    08:00 +26°C° 0 mm 1 mps 720 mmHg 63%
    09:00 +28°C° 0 mm 1 mps 720 mmHg 60%
    10:00 +29°C° 0 mm 2 mps 720 mmHg 58%
    11:00 +30°C° 0 mm 2 mps 719 mmHg 57%
    12:00 +30°C° 0 mm 2 mps 719 mmHg 56%
    13:00 +31°C° 0 mm 2 mps 718 mmHg 54%
    14:00 +30°C° 0 mm 2 mps 718 mmHg 55%
    15:00 +30°C° 0 mm 2 mps 717 mmHg 57%
    16:00 +30°C° 0 mm 2 mps 717 mmHg 58%
    17:00 +29°C° 0.1 mm 1 mps 717 mmHg 64%
    18:00 +27°C° 0.1 mm 1 mps 717 mmHg 70%
    19:00 +25°C° 0.1 mm 1 mps 718 mmHg 76%
    20:00 +25°C° 0.3 mm 1 mps 718 mmHg 76%
    21:00 +25°C° 0.3 mm 1 mps 719 mmHg 76%
    22:00 +25°C° 0.3 mm 1 mps 719 mmHg 76%
    23:00 +24°C° 0.3 mm 1 mps 719 mmHg 77%
    Show more